Location: Clatteringshaws Loch
(55.0508°N, 4.2860°W)
Time: 01:59:21
(UTC+01:00)

SR - Visible Passes

Search period start: 05 May 2016 00:00
Search period end: 15 May 2016 00:00
Orbit: 580 x 879 km, 66.7° (Epoch: 04 May)

Date Brightness Start Highest point End Pass type
(mag) Time Alt. Az. Time Alt. Az. Time Alt. Az.
05 May ? 00:18:03 10° W 00:23:08 37° NNW 00:27:50 10° NE visible
05 May ? 02:02:27 10° WNW 02:06:31 22° N 02:10:20 10° NE visible
05 May ? 03:45:52 10° NW 03:50:07 27° NNE 03:54:05 10° ENE visible
05 May ? 21:46:06 10° SSW 21:51:26 46° ESE 21:56:25 10° NE visible
05 May ? 23:28:12 10° WSW 23:33:35 52° NW 23:38:34 10° NE visible
06 May ? 01:12:24 10° WNW 01:16:43 24° NNW 01:20:46 10° NE visible
06 May ? 02:56:19 10° NW 03:00:21 23° N 03:04:07 10° ENE visible
06 May ? 04:38:51 10° NW 04:43:35 46° NE 04:47:56 10° ESE visible
06 May ? 22:38:35 10° SW 22:44:10 76° NW 22:49:19 10° NE visible
07 May ? 00:22:18 10° W 00:26:59 29° NNW 00:31:21 10° NE visible
07 May ? 02:06:36 10° NW 02:10:32 22° N 02:14:14 10° NE visible
07 May ? 03:49:31 10° NW 03:54:00 33° NNE 03:58:09 10° E visible
07 May ? 21:49:18 10° SSW 21:54:52 71° SE 22:00:01 10° NE visible
07 May ? 23:32:17 10° W 23:37:21 38° NNW 23:42:03 10° NE visible
08 May ? 01:16:41 10° WNW 01:20:43 22° N 01:24:30 10° NE visible
08 May ? 03:00:06 10° NW 03:04:19 26° NNE 03:08:14 10° ENE visible
08 May ? 22:42:26 10° WSW 22:47:49 53° NW 22:52:47 10° NE visible
09 May ? 00:26:37 10° WNW 00:30:55 24° NNW 00:34:57 10° NE visible
09 May ? 02:10:34 10° NW 02:14:33 23° N 02:18:17 10° ENE visible
09 May ? 03:53:06 10° NW 03:57:47 45° NE 04:02:06 10° ESE visible
09 May ? 21:52:51 10° SW 21:58:24 78° NW 22:03:32 10° NE visible
09 May ? 23:36:32 10° W 23:41:12 29° NNW 23:45:33 10° NE visible
10 May ? 01:20:50 10° NW 01:24:44 21° N 01:28:24 10° NE visible
10 May ? 03:03:46 10° NW 03:08:12 32° NNE 03:12:19 10° E visible
10 May ? 22:46:31 10° W 22:51:34 38° NNW 22:56:14 10° NE visible
11 May ? 00:30:54 10° WNW 00:34:55 22° N 00:38:40 10° NE visible
11 May ? 02:14:22 10° NW 02:18:31 26° NNE 02:22:23 10° ENE visible
11 May ? 03:56:38 10° NW 04:01:27 67° NE 04:05:51 10° SE visible
11 May ? 21:56:41 10° WSW 22:02:02 54° NW 22:06:59 10° NE visible
11 May ? 23:40:50 10° WNW 23:45:07 25° NNW 23:49:08 10° NE visible
12 May ? 01:24:49 10° NW 01:28:44 22° N 01:32:26 10° ENE visible
12 May ? 03:07:21 10° NW 03:11:59 43° NE 03:16:16 10° ESE visible
12 May ? 22:50:45 10° W 22:55:24 30° NNW 22:59:44 10° NE visible
13 May ? 00:35:04 10° NW 00:38:55 21° N 00:42:33 10° NE visible
13 May ? 02:18:01 10° NW 02:22:24 32° NNE 02:26:28 10° E visible
13 May ? 04:00:13 10° NW 04:04:58 78° SW 04:09:21 10° SE visible
13 May ? 22:00:44 10° W 22:05:47 39° NNW 22:10:26 10° NE visible
13 May ? 23:45:07 10° WNW 23:49:06 22° N 23:52:51 10° NE visible
14 May ? 01:28:36 10° NW 01:32:42 25° NNE 01:36:32 10° ENE visible
14 May ? 03:10:53 10° NW 03:15:39 65° NE 03:20:02 10° SE visible
14 May ? 22:55:03 10° WNW 22:59:19 25° NNW 23:03:19 10° NE visible
